Regional Weather Roundup
Issued by NWS

Home | Current Version | Previous Version | Text Only | Print | Product List | Glossary On
Versions: 1 2 3 4 5 6 7 8 9 10 11 12 13 14 15 16 17 18 19 20 21 22 23 24 25 26 27 28 29 30 31 32 33 34 35 36 37 38 39 40 41 42 43 44 45 46 47 48 49 50
000
ASUS46 KSTO 240315
RWRCA

NORTHERN AND CENTRAL CA REGIONAL WEATHER ROUNDUP
NATIONAL WEATHER SERVICE SACRAMENTO CA
800 PM PDT SAT JUL 23 2016

NOTE: FAIR INDICATES FEW OR NO CLOUDS BELOW 12,000 FEET WITH NO
SIGNIFICANT WEATHER AND/OR OBSTRUCTIONS TO VISIBILITY.

CAZ001-003-240400-
NORTHWEST AREA

CITY           SKY/WX    TMP DP  RH WIND       PRES   REMARKS
CRESCENT CITY  CLEAR     57  52  83 N18G29    30.00S
UKIAH          CLEAR     86  44  23 N7        29.86S
$$

CAZ006-505>513-240400-
BAY AREA

CITY           SKY/WX    TMP DP  RH WIND       PRES   REMARKS
SANTA ROSA     CLEAR     76  52  43 S7        29.81R
SAN RAFAEL     N/A       81  MM  MM MISG
NAPA           CLEAR     73  55  53 S12       29.82R
CONCORD        CLEAR     90  43  19 SW8       29.81S
OAKLAND CITY   N/A       71  MM  MM MISG
OAKLAND        CLEAR     65  55  70 W17       29.86S
SAN FRAN CITY  N/A       60  MM  70 MISG
SAN FRAN ARPT  PTCLDY    61  51  70 NW22      29.86S
LIVERMORE      CLEAR     85  44  23 NW9       29.82S
HAYWARD        CLEAR     67  53  61 W12       29.86S
REDWOOD CITY   N/A       79  MM  32 MISG
MOFFETT ARPT   CLEAR     69  57  65 NW7       29.86S
SAN JOSE ARPT  CLEAR     74  55  51 W9        29.85S
$$
CAZ034-037-514>518-240400-
CENTRAL COAST

CITY           SKY/WX    TMP DP  RH WIND       PRES   REMARKS
WATSONVILLE    CLEAR     63  53  70 S5        29.87S
SALINAS        CLEAR     63  52  67 NW15      29.87S
MONTEREY       CLEAR     60  52  74 SW8       29.91R
SAN LUIS OBISP CLEAR     62  52  69 W9        29.81R
SANTA MARIA    CLEAR     58  52  80 NW8       29.83R HAZE
$$
CAZ015-016-240400-
NORTHERN SACRAMENTO VALLEY

CITY           SKY/WX    TMP DP  RH WIND       PRES   REMARKS
REDDING        CLEAR    100  39  12 CALM      29.78S HX  95
RED BLUFF      CLEAR    101  36  10 N3        29.77F HX  95
OROVILLE       CLEAR     95  50  21 CALM      29.78F HX  92
$$
CAZ016>018-240400-
SOUTHERN SACRAMENTO VALLEY

CITY           SKY/WX    TMP DP  RH WIND       PRES   REMARKS
AUBURN         CLEAR     91  27   9 W5        29.89F
BEALE AFB      CLEAR     95  42  16 SW5       29.76S HX  90
LINCOLN        FAIR      93  43  17 SW5       29.77S
MARYSVILLE     CLEAR     94  51  23 SW6       29.76F HX  91
SAC INTL ARPT  CLEAR     93  57  29 S9        29.76F HX  91
MATHER AIRPORT CLEAR     93  50  22 SW12      29.77F HX  90
DOWNTOWN SAC   N/A       94  MM  MM MISG
SAC EXEC ARPT  CLEAR     91  49  23 SW13      29.77S
VACAVILLE      CLEAR     93  46  19 S6        29.80S
TRAVIS AFB     CLEAR     86  51  30 SW15      29.77F
$$
CAZ019>021-240400-
SAN JOAQUIN VALLEY

CITY           SKY/WX    TMP DP  RH WIND       PRES   REMARKS
STOCKTON       CLEAR     92  46  20 NW12      29.78S
MODESTO        CLEAR     95  47  19 NW10      29.77S HX  91
MERCED         CLEAR     91  46  21 W7        29.77S
FRESNO         CLEAR     95  46  18 W9        29.79S HX  91
HANFORD        PTCLDY    92  49  22 NW6       29.79S
PORTERVILLE    CLEAR     91  57  31 W5        29.81R
BAKERSFIELD    CLEAR     95  37  13 W3        29.81R HX  90
$$
CAZ011-012-071-240400-
NORTHERN MOUNTAINS

CITY           SKY/WX    TMP DP  RH WIND       PRES   REMARKS
YREKA          CLEAR     83  33  16 N14       30.03S
MOUNT SHASTA   CLEAR     78  37  22 N3        30.05S
ALTURAS        CLEAR     81  30  15 N8        30.09S
$$
CAZ011-012-071-240400-
SIERRA NEVADA MTNS

CITY           SKY/WX    TMP DP  RH WIND       PRES   REMARKS
BLUE CANYON    CLEAR     77  35  21 W3        30.17S
TRUCKEE        CLEAR     75  30  19 W8        30.19S
TAHOE VLY ARPT CLEAR     68  32  26 CALM      30.21R
MAMMOTH LAKES    N/A     76  21  12 W7        30.25R
$$




USA.gov is the U.S. government's official web portal to all federal, state and local government web resources and services.